This is the latest recevied weather packets stored in our database for station/object KI2K. If no packets are shown the sender has not sent any weather packets the latest 10 day(s).
| Time | Temp. | Humidity | Pressure | Rain* | Wind** | Luminosity | Snow |
|---|---|---|---|---|---|---|---|
| 1778164184 | 12.22° C | 53% | 1016 hPa | 0 mm | - | 632 W/m² | - |
| 1778163880 | 11.67° C | 55% | 1016.2 hPa | 0 mm | - | 604 W/m² | - |
| 1778163578 | 11.67° C | 53% | 1016.2 hPa | 0 mm | - | 576 W/m² | - |
| 1778163273 | 11.67° C | 54% | 1016 hPa | 0 mm | - | 572 W/m² | - |
| 1778162970 | 11.67° C | 53% | 1016.1 hPa | 0 mm | - | 563 W/m² | - |
| 1778162667 | 11.11° C | 55% | 1016.3 hPa | 0 mm | - | 552 W/m² | - |
| 1778162365 | 10.56° C | 54% | 1016.1 hPa | 0 mm | - | 522 W/m² | - |
| 1778162061 | 10.56° C | 55% | 1016.1 hPa | 0 mm | - | 517 W/m² | - |
| 1778161759 | 10.56° C | 57% | 1016.2 hPa | 0 mm | - | 478 W/m² | - |
| 1778161455 | 10.56° C | 59% | 1016.2 hPa | 0 mm | - | 462 W/m² | - |
| 1778161151 | 10.56° C | 56% | 1016.2 hPa | 0 mm | - | 428 W/m² | - |
| 1778160846 | 10.56° C | 57% | 1016.1 hPa | 0 mm | - | 386 W/m² | - |
| 1778160540 | 10.56° C | 60% | 1016.3 hPa | 0 mm | - | 346 W/m² | - |
| 1778160236 | 10.56° C | 61% | 1016.2 hPa | 0 mm | - | 361 W/m² | - |
| 1778159933 | 10° C | 61% | 1016.2 hPa | 0 mm | - | 332 W/m² | - |
| 1778159629 | 10° C | 64% | 1016.1 hPa | 0 mm | - | 316 W/m² | - |
| 1778159326 | 10° C | 64% | 1016.1 hPa | 0 mm | - | 293 W/m² | - |
| 1778159023 | 9.44° C | 67% | 1016.2 hPa | 0 mm | - | 284 W/m² | - |
| 1778158723 | 9.44° C | 64% | 1016.1 hPa | 0 mm | - | 252 W/m² | - |
| 1778158419 | 9.44° C | 67% | 1016.1 hPa | 0 mm | - | 224 W/m² | - |
| 1778158117 | 8.89° C | 68% | 1016.2 hPa | 0 mm | - | 215 W/m² | - |
| 1778157813 | 8.33° C | 72% | 1016 hPa | 0 mm | - | 211 W/m² | - |
| 1778157512 | 8.33° C | 70% | 1016 hPa | 0 mm | - | 189 W/m² | - |
| 1778157208 | 7.78° C | 73% | 1015.8 hPa | 0 mm | - | 178 W/m² | - |
| 1778156905 | 7.78° C | 76% | 1016.2 hPa | 0 mm | - | 161 W/m² | - |
* Rain latest hour (hover to see other rain measurements)
** Current wind speed in m/s (hover to see current wind gust speed)